TimeEST,TemperatureF,Dew PointF,Humidity,Sea Level PressureIn,VisibilityMPH,Wind Direction,Wind SpeedMPH,Gust SpeedMPH,PrecipitationIn,Events,Conditions,WindDirDegrees,DateUTC
12:38 AM,26.6,24.8,93,30.09,5.0,West,9.2,-,N/A,,Overcast,260,2013-01-26 05:38:00
12:54 AM,26.1,24.1,92,30.10,5.0,West,8.1,-,N/A,,Overcast,260,2013-01-26 05:54:00
1:54 AM,27.0,25.0,92,30.09,4.0,WSW,3.5,-,N/A,,Overcast,250,2013-01-26 06:54:00
2:54 AM,27.0,25.0,92,30.09,4.0,West,8.1,-,N/A,,Overcast,260,2013-01-26 07:54:00
3:54 AM,27.0,26.1,96,30.09,4.0,West,5.8,-,N/A,,Overcast,270,2013-01-26 08:54:00
4:32 AM,26.6,26.6,100,30.08,3.0,Calm,Calm,-,N/A,,Overcast,0,2013-01-26 09:32:00
4:54 AM,26.1,24.1,92,30.10,4.0,SW,3.5,-,N/A,,Mostly Cloudy,220,2013-01-26 09:54:00
5:47 AM,26.6,24.8,93,30.09,4.0,Calm,Calm,-,N/A,,Scattered Clouds,0,2013-01-26 10:47:00
5:54 AM,26.1,24.1,92,30.12,3.0,Calm,Calm,-,N/A,,Partly Cloudy,0,2013-01-26 10:54:00
6:54 AM,24.1,23.0,96,30.15,3.0,Calm,Calm,-,N/A,,Clear,0,2013-01-26 11:54:00
7:41 AM,24.8,23.0,93,30.15,2.5,Calm,Calm,-,N/A,,Clear,0,2013-01-26 12:41:00
7:54 AM,25.0,21.9,88,30.18,2.5,Calm,Calm,-,N/A,,Clear,0,2013-01-26 12:54:00
8:41 AM,26.6,24.8,93,30.18,3.0,NW,3.5,-,N/A,,Clear,310,2013-01-26 13:41:00
8:54 AM,28.0,26.1,92,30.20,4.0,WNW,3.5,-,N/A,,Clear,300,2013-01-26 13:54:00
9:54 AM,30.9,26.1,82,30.23,7.0,Calm,Calm,-,N/A,,Clear,0,2013-01-26 14:54:00
10:54 AM,32.0,28.0,85,30.25,5.0,Calm,Calm,-,N/A,,Clear,0,2013-01-26 15:54:00
11:54 AM,33.1,28.9,85,30.25,6.0,Calm,Calm,-,N/A,,Clear,0,2013-01-26 16:54:00
12:54 PM,36.0,30.0,79,30.23,10.0,Calm,Calm,-,N/A,,Clear,0,2013-01-26 17:54:00
1:54 PM,36.0,32.0,86,30.21,9.0,SSE,3.5,-,N/A,,Clear,150,2013-01-26 18:54:00
2:54 PM,37.0,30.9,79,30.22,10.0,Calm,Calm,-,N/A,,Clear,0,2013-01-26 19:54:00
3:54 PM,37.0,32.0,82,30.23,10.0,South,3.5,-,N/A,,Clear,170,2013-01-26 20:54:00
4:54 PM,37.0,30.9,79,30.25,10.0,Calm,Calm,-,N/A,,Clear,0,2013-01-26 21:54:00
5:54 PM,35.1,32.0,89,30.27,10.0,Calm,Calm,-,N/A,,Clear,0,2013-01-26 22:54:00
6:54 PM,32.0,30.0,92,30.30,8.0,Calm,Calm,-,N/A,,Clear,0,2013-01-26 23:54:00
7:54 PM,30.0,28.9,96,30.31,4.0,Calm,Calm,-,N/A,,Clear,0,2013-01-27 00:54:00
8:39 PM,28.4,26.6,93,30.30,1.8,Calm,Calm,-,N/A,,Clear,0,2013-01-27 01:39:00
8:54 PM,28.9,28.0,96,30.33,2.5,Calm,Calm,-,N/A,,Clear,0,2013-01-27 01:54:00
9:03 PM,28.4,26.6,93,30.31,0.8,Calm,Calm,-,N/A,,Clear,0,2013-01-27 02:03:00
9:16 PM,28.4,26.6,93,30.32,2.0,Calm,Calm,-,N/A,,Clear,0,2013-01-27 02:16:00
9:54 PM,28.0,26.1,92,30.36,2.5,Calm,Calm,-,N/A,,Clear,0,2013-01-27 02:54:00
10:03 PM,28.4,26.6,93,30.35,3.0,Calm,Calm,-,N/A,,Clear,0,2013-01-27 03:03:00
10:54 PM,28.0,27.0,96,30.39,4.0,Calm,Calm,-,N/A,,Clear,0,2013-01-27 03:54:00
11:54 PM,28.9,25.0,85,30.40,10.0,North,4.6,-,N/A,,Clear,10,2013-01-27 04:54:00